Location: Rounton
(54.4000°N, 1.3500°W)
Time: 08:13:26
(UTC+00:00)

Vanguard 1 Rocket - Pass Details

Date: 04 December 2021
Orbit: 651 x 4224 km, 34.3° (Epoch: 19 January)

Event Time Altitude Azimuth Distance (km) Brightness Sun altitude
Rises 03:41:29 0° 233° (SW) 4,961 - -37.3°
Reaches altitude 10° 03:44:34 10° 224° (SW) 4,367 - -36.8°
Exits shadow 03:50:32 29° 197° (SSW) 3,776 10.2 -36.0°
Maximum altitude 03:55:44 35° 165° (SSE) 3,964 10.5 -35.2°
Drops below altitude 10° 04:13:57 10° 110° (ESE) 7,063 12.6 -32.6°
Sets 04:20:51 0° 104° (ESE) 8,361 13.3 -31.6°
